User: anonymous   Login
Location: Caltech
(34.1382°N, 118.1253°W)
Time: 09:40:28
(UTC-07:00)
Language:

Iridium 65 - Orbit

View from above orbital plane
View from above orbital plane
View from above satellite
View from above satellite

Ground track
Ground track

The orbit data is extracted from the following two-line orbital elements,

1 25288U 98021D   18143.49368219  .00000152  00000-0  47318-4 0  9999
2 25288  86.3965  81.6326 0002174  81.4455 278.6987 14.34218715 53798
Epoch (UTC): 23 May 2018 11:50:54
Eccentricity: 0.0002174
inclination: 86.3965°
perigee height: 776 km
apogee height: 779 km
right ascension of ascending node: 81.6326°
argument of perigee: 81.4455°
revolutions per day: 14.34218715
mean anomaly at epoch: 278.6987°
orbit number at epoch: 5379

The dashed part of the orbit path shows where the satellite is in the earth's shadow,  

DLR